EUTELSAT 16A

Last updated on May 23, 2019, 3:05 a.m. UTC

1 37836U 11057A   19142.82578418  .00000096  00000-0  00000+0 0  9995
2 37836   0.0680   2.3975 0005033  66.6363 124.4260  1.00274178 27895
UTC
Height (km)
Latitude
Longitude
Inclination
Orbital Period
UTC large
Height (km)
Speed (km/s)
/
Latitude / Longitude
Inclination (degrees)
Orbital Period (minutes)
Azimuth
Elevation
Range (km)
Doppler Factor
iOS Compass Heading
iOS Angle

Next 30 passes for location: Hong Kong

Rise time Rise Azimuth (degrees) Set time Set Azimuth (degrees) Duration Max altitude (degrees)

No matching passes for this satellites